Location: Unspecified
(0.0000°N, 0.0000°E)
Time: 18:36:53
(UTC+00:00)

Vanguard 1 Rocket - Pass Details

Date: 23 April 2026
Orbit: 655 x 4212 km, 34.3° (Epoch: 17 May)

Event Time Altitude Azimuth Distance (km) Brightness Sun altitude
Rises 19:42:19 0° 270° (W) 6,421 13.0 -25.3°
Reaches altitude 10° 19:46:49 10° 280° (W) 5,867 12.5 -26.4°
Maximum altitude 20:04:00 33° 337° (NNW) 5,368 11.5 -30.6°
Drops below altitude 10° 20:26:06 10° 35° (NE) 7,302 11.8 -35.9°
Sets 20:32:56 0° 45° (NE) 8,088 12.0 -37.5°
